Weather History for KALW - June, 2013

Change the Weather History Date:

Sunday, June 30, 2013

  Actual Average Record
Temperature  
Mean Temperature 83 °F -  
Max Temperature 100 °F 83 °F 104 °F (1987)
Min Temperature 66 °F 55 °F 47 °F (1988)
Cooling Degree Days 18    
Growing Degree Days 33 (Base 50)    
Moisture  
Dew Point 59 °F    
Average Humidity 47    
Maximum Humidity 76    
Minimum Humidity 22    
Precipitation  
Precipitation 0.00 in - - ()
Sea Level Pressure  
Sea Level Pressure 29.93 in    
Wind  
Wind Speed 7 mph (ENE)    
Max Wind Speed 17 mph    
Max Gust Speed 26 mph    
Visibility 10 miles    
Events      
Averages and records for this station are not official NWS values.
T = Trace of Precipitation, MM = Missing Value Source: NWS Daily Summary

Daily Weather History Graph

Daily Weather History Graph

Search for Another Location

Airport or City:

Trip Planner

Search our weather history database for the weather conditions in past years. The results will help you decide how hot, cold, wet, or windy it might be!

Date:

Astronomy

Jun. 30, 2013 Rise Set
Actual Time 5:05 AM PDT 8:48 PM PDT
Civil Twilight 4:27 AM PDT 9:26 PM PDT
Nautical Twilight 3:35 AM PDT 10:18 PM PDT
Astronomical Twilight 2:23 AM PDT 11:29 PM PDT
Moon 12:23 AM PDT 1:53 PM PDT
Length of Visible Light 16h 59m
Length of Day
15h 42m
Last Quarter, 44% of the Moon is Illuminated
Jun 30
Last Quarter
Jul 8
New
Jul 15
First Quarter
Jul 22
Full
Jul 29
Last Quarter

Hourly Weather History & Observations

Time (PDT) Temp. Heat Index Dew Point Humidity Pressure Visibility Wind Dir Wind Speed Gust Speed Precip Events Conditions
12:53 AM 73.9 °F - 61.0 °F 64% 29.97 in 10.0 mi SE 3.5 mph - N/A   Clear
1:53 AM 72.0 °F - 61.0 °F 68% 29.98 in 10.0 mi SE 8.1 mph - N/A   Clear
2:53 AM 71.1 °F - 61.0 °F 70% 29.98 in 10.0 mi South 3.5 mph - N/A   Clear
3:53 AM 69.1 °F - 60.1 °F 73% 29.98 in 10.0 mi ESE 3.5 mph - N/A   Clear
4:53 AM 66.9 °F - 59.0 °F 76% 29.98 in 10.0 mi ESE 5.8 mph - N/A   Clear
5:53 AM 68.0 °F - 59.0 °F 73% 30.00 in 10.0 mi ESE 4.6 mph - N/A   Clear
6:53 AM 73.0 °F - 61.0 °F 66% 30.01 in 10.0 mi Calm Calm - N/A   Clear
7:53 AM 77.0 °F - 60.1 °F 56% 30.01 in 10.0 mi Variable 4.6 mph - N/A   Clear
8:53 AM 79.0 °F - 60.1 °F 52% 30.01 in 10.0 mi Variable 3.5 mph - N/A   Clear
9:53 AM 82.9 °F 83.3 °F 61.0 °F 47% 29.99 in 10.0 mi Calm Calm - N/A   Clear
10:53 AM 88.0 °F 87.6 °F 60.1 °F 39% 29.98 in 10.0 mi Variable 3.5 mph - N/A   Clear
11:53 AM 93.0 °F 92.0 °F 57.9 °F 31% 29.96 in 10.0 mi Variable 5.8 mph - N/A   Clear
12:53 PM 93.9 °F 92.0 °F 55.0 °F 27% 29.94 in 10.0 mi ENE 10.4 mph 16.1 mph N/A   Clear
1:53 PM 97.0 °F 95.3 °F 55.9 °F 25% 29.92 in 10.0 mi North 6.9 mph - N/A   Clear
2:53 PM 100.0 °F 98.8 °F 55.9 °F 23% 29.90 in 10.0 mi NNE 10.4 mph - N/A   Clear
3:53 PM 100.0 °F 98.3 °F 55.0 °F 22% 29.89 in 10.0 mi ENE 15.0 mph - N/A   Clear
4:53 PM 100.0 °F 98.3 °F 55.0 °F 22% 29.87 in 10.0 mi NE 16.1 mph - N/A   Clear
5:53 PM 100.0 °F 98.8 °F 55.9 °F 23% 29.85 in 10.0 mi NE 17.3 mph - N/A   Clear
6:53 PM 97.0 °F 95.7 °F 57.0 °F 26% 29.85 in 10.0 mi NE 17.3 mph 26.5 mph N/A   Clear
7:53 PM 91.9 °F 91.5 °F 60.1 °F 34% 29.85 in 10.0 mi NE 15.0 mph - N/A   Clear
8:53 PM 84.9 °F 85.0 °F 61.0 °F 44% 29.85 in 10.0 mi NE 12.7 mph - N/A   Clear
9:53 PM 82.0 °F 83.0 °F 62.1 °F 51% 29.85 in 10.0 mi East 15.0 mph - N/A   Clear
10:53 PM 79.0 °F - 62.1 °F 56% 29.86 in 10.0 mi ENE 12.7 mph - N/A   Clear
11:53 PM 75.9 °F - 60.1 °F 58% 29.86 in 10.0 mi East 5.8 mph - N/A   Clear